This is the latest recevied weather packets stored in our database for station/object DK4DO-10. If no packets are shown the sender has not sent any weather packets the latest 10 day(s).
| Time | Temp. | Humidity | Pressure | Rain* | Wind** | Luminosity | Snow |
|---|---|---|---|---|---|---|---|
| 1777633976 | 19.44° C | 19% | 1019.7 hPa | - | - | - | - |
| 1777633375 | 18.89° C | 18% | 1020 hPa | - | - | - | - |
| 1777632775 | 18.89° C | 19% | 1020.2 hPa | - | - | - | - |
| 1777632175 | 18.89° C | 18% | 1020.2 hPa | - | - | - | - |
| 1777631575 | 18.89° C | 20% | 1020.3 hPa | - | - | - | - |
| 1777630974 | 18.89° C | 19% | 1020.4 hPa | - | - | - | - |
| 1777630374 | 18.33° C | 21% | 1020.6 hPa | - | - | - | - |
| 1777629774 | 18.33° C | 20% | 1020.7 hPa | - | - | - | - |
| 1777629174 | 18.89° C | 23% | 1020.7 hPa | - | - | - | - |
| 1777628573 | 17.78° C | 24% | 1020.9 hPa | - | - | - | - |
| 1777627973 | 17.22° C | 25% | 1021 hPa | - | - | - | - |
| 1777627373 | 17.22° C | 25% | 1021.1 hPa | - | - | - | - |
| 1777626773 | 16.67° C | 25% | 1021.2 hPa | - | - | - | - |
| 1777626173 | 17.22° C | 25% | 1021.3 hPa | - | - | - | - |
| 1777625572 | 16.67° C | 26% | 1021.5 hPa | - | - | - | - |
| 1777624972 | 16.11° C | 26% | 1021.5 hPa | - | - | - | - |
| 1777624372 | 16.11° C | 25% | 1021.5 hPa | - | - | - | - |
| 1777623772 | 15.56° C | 27% | 1021.4 hPa | - | - | - | - |
| 1777623171 | 15.56° C | 27% | 1021.5 hPa | - | - | - | - |
| 1777622571 | 15.56° C | 26% | 1021.4 hPa | - | - | - | - |
| 1777621971 | 15° C | 28% | 1021.5 hPa | - | - | - | - |
| 1777621371 | 15° C | 28% | 1021.6 hPa | - | - | - | - |
| 1777620771 | 13.89° C | 27% | 1021.6 hPa | - | - | - | - |
| 1777620170 | 14.44° C | 28% | 1021.6 hPa | - | - | - | - |
| 1777619570 | 13.89° C | 30% | 1021.6 hPa | - | - | - | - |
* Rain since midnight (hover to see other rain measurements)
** Current wind speed in m/s (hover to see current wind gust speed)